Bezoek ook deze websites:

Mijn andere website

Weerstation Noordbergum

Weerstation in Leuven


U vindt ons ook hier:

Weather Underground


Select another period ( hide this area )

Eenheden Periode Custom range Directly to
Metrisch Engels Beide
Dagelijkse Wekelijkse Maandelijkse Jaarlijkse
use both date-selectors for a custom range
previous Dag
With this date

WeatherUnderground graphs for this period ( click here )


Dagelijkse Samenvatting Maandag 18 november 2019
Tijd Temp. ( °C ) Dew pt. ( °C ) Wind ( km/h ) van Windvlaag ( km/h ) Luchtdruk ( hPa ) Humid.( % ) Rainrate ( cm )
Hoog7,4 6,3 19,5 Noorden ( 1039/2111 ) 27,4 1009,0 95 2,50
Gemiddeld6,0 5,0 11,1 Noorden #90/191 16,3 1006,4 93 2,20
Laag4,7 3,7 4,7   8,0 1005,0 91 -
Dagelijkse Tabular details for Maandag 18 november 2019
Tijd Temp. ( °C ) Dew pt. ( °C ) Wind ( km/h ) van Windvlaag ( km/h ) Luchtdruk ( hPa ) Humid.( % ) Rainrate ( cm )
00:00 4,7 3,7 7,9 NO 9,7 1009,0 93 1,30
00:05 4,7 3,7 7,9 NO 12,9 1009,0 93 1,30
00:10 4,7 3,7 7,9 NO 14,5 1008,7 93 1,30
00:15 4,8 3,8 7,9 NO 16,1 1008,7 93 1,00
00:20 4,9 3,7 6,4 NO 14,5 1008,7 92 0,80
00:25 4,9 3,7 9,7 NO 12,9 1008,7 92 0,80
00:30 4,9 3,7 7,9 NO 14,5 1008,4 92 0,50
00:35 4,9 3,7 6,4 NO 12,9 1008,4 92 0,30
00:40 5,0 3,8 9,7 NNO 12,9 1008,4 92 0,30
00:45 5,0 3,8 9,7 NO 16,1 1008,4 92 0,30
00:50 5,0 3,8 6,4 NO 9,7 1008,4 92 0,50
00:55 5,0 3,8 6,4 NO 12,9 1008,7 92 0,50
01:00 5,0 3,8 6,4 NO 11,3 1008,7 92 0,50
01:05 4,9 3,7 9,7 NO 17,7 1008,7 92 0,50
01:10 5,0 3,8 6,4 Oosten 14,5 1008,7 92 0,80
01:15 5,1 3,9 9,7 NO 9,7 1008,7 92 0,80
01:20 5,0 3,8 9,7 NO 14,5 1008,7 92 1,00
01:25 5,0 3,7 14,3 NNO 16,1 1008,4 91 1,30
01:30 5,0 3,7 7,9 NO 16,1 1008,4 91 1,50
01:35 5,1 3,9 11,1 NO 14,5 1008,0 92 1,80
01:40 5,1 3,9 9,7 NO 14,5 1008,0 92 1,80
01:45 5,0 3,8 9,7 NO 14,5 1008,0 92 2,00
01:50 5,0 3,8 11,1 NO 14,5 1008,0 92 2,00
01:55 5,0 3,8 9,7 NO 17,7 1008,0 92 2,00
02:00 5,0 3,8 9,7 NNO 12,9 1008,0 92 2,50
02:05 5,0 4,0 9,7 NO 12,9 1008,0 93 2,30
02:10 5,0 3,8 6,4 NNO 12,9 1008,4 92 2,50
02:15 5,0 4,0 7,9 NNW 9,7 1008,0 93 2,50
02:20 4,9 3,9 6,4 NO 11,3 1008,0 93 2,50
02:25 5,0 3,8 14,3 NO 16,1 1007,7 92 2,50
02:30 5,0 3,8 7,9 Noorden 17,7 1007,7 92 2,30
02:35 5,1 3,9 11,1 Noorden 14,5 1007,7 92 2,00
02:40 5,1 3,9 9,7 NO 17,7 1007,7 92 2,30
02:45 5,0 3,8 7,9 NO 14,5 1007,7 92 2,30
02:50 5,0 3,7 11,1 NO 17,7 1007,3 91 2,00
02:55 5,1 3,8 14,3 NO 16,1 1007,3 91 2,00
03:00 5,0 3,8 9,7 NO 16,1 1007,7 92 1,80
03:05 5,0 3,8 17,7 NO 17,7 1007,7 92 2,00
03:10 4,9 3,7 7,9 NNO 16,1 1007,7 92 1,80
03:16 4,9 3,7 7,9 NO 14,5 1007,7 92 2,00
03:21 5,0 3,8 6,4 NNO 16,1 1007,7 92 1,80
03:26 4,9 3,9 9,7 NNO 12,9 1007,7 93 1,50
03:31 4,9 3,9 9,7 NO 16,1 1007,3 93 1,50
03:36 4,9 3,7 17,7 NNO 20,9 1007,3 92 1,50
03:41 5,0 3,8 17,7 NNO 19,3 1007,3 92 1,30
03:46 5,0 3,8 16,3 NO 19,3 1007,3 92 1,00
03:51 4,9 3,9 7,9 NO 14,5 1007,0 93 1,30
03:56 4,9 3,9 6,4 NNO 17,7 1007,0 93 1,50
04:01 4,9 3,9 14,3 NO 19,3 1006,7 93 1,30
04:06 4,9 4,0 11,1 NNO 17,7 1006,7 94 1,00
04:11 4,9 4,0 16,3 Noorden 20,9 1006,3 94 0,80
04:16 4,9 4,0 16,3 NO 19,3 1006,3 94 0,80
04:21 4,9 3,9 11,1 NO 20,9 1006,3 93 1,00
04:26 4,9 3,9 13,0 NNO 25,7 1006,7 93 1,00
04:31 4,9 4,0 17,7 NNO 17,7 1006,3 94 1,00
04:36 4,9 4,0 13,0 NNO 17,7 1006,3 94 1,00
04:41 4,9 4,0 11,1 Noorden 16,1 1006,3 94 1,00
04:46 5,0 4,1 9,7 NO 24,1 1006,7 94 1,00
04:51 5,1 4,2 9,7 NO 16,1 1006,7 94 0,80
04:56 5,1 4,2 9,7 NNO 19,3 1006,7 94 0,50
05:01 5,2 4,3 13,0 Noorden 17,7 1006,7 94 0,50
05:06 5,2 4,3 17,7 Noorden 17,7 1006,7 94 0,50
05:11 5,3 4,4 14,3 Noorden 24,1 1006,7 94 0,80
05:16 5,3 4,4 14,3 Noorden 22,5 1006,3 94 0,80
05:21 5,3 4,4 17,7 Noorden 19,3 1006,3 94 0,50
05:26 5,3 4,4 16,3 Noorden 22,5 1006,3 94 0,80
05:31 5,3 4,4 13,0 Noorden 20,9 1006,3 94 0,80
05:36 5,4 4,5 14,3 Noorden 24,1 1006,3 94 1,00
05:41 5,4 4,5 7,9 NNO 14,5 1006,3 94 1,00
05:46 5,4 4,5 7,9 NO 16,1 1006,3 94 1,30
05:51 5,4 4,5 16,3 Noorden 19,3 1006,3 94 1,50
05:56 5,4 4,5 14,3 Noorden 20,9 1006,3 94 1,50
06:01 5,5 4,8 13,0 Noorden 14,5 1006,3 95 1,80
06:06 5,5 4,8 14,3 Noorden 20,9 1006,3 95 1,80
06:11 5,6 4,9 11,1 NNO 19,3 1006,3 95 1,80
06:16 5,6 4,9 7,9 NNO 19,3 1006,3 95 1,80
06:21 5,6 4,9 16,3 Noorden 19,3 1006,3 95 1,80
06:26 5,7 5,0 16,3 Noorden 27,4 1006,3 95 1,80
06:31 5,7 4,8 13,0 Noorden 22,5 1006,3 94 1,80
06:36 5,7 4,8 17,7 Noorden 19,3 1006,3 94 1,80
06:41 5,6 4,9 16,3 Noorden 19,3 1006,3 95 1,80
06:46 5,7 5,0 14,3 Noorden 19,3 1006,3 95 1,80
06:51 5,7 5,0 16,3 Noorden 19,3 1006,3 95 1,50
06:56 5,7 5,0 13,0 Noorden 16,1 1006,3 95 1,50
07:01 5,7 5,0 13,0 Noorden 16,1 1006,3 95 1,30
07:06 5,7 5,0 9,7 Noorden 14,5 1006,3 95 1,30
07:11 5,7 5,0 13,0 NNO 24,1 1006,0 95 1,00
07:16 5,8 5,1 17,7 NNW 20,9 1006,0 95 0,80
07:21 5,8 5,1 14,3 Noorden 17,7 1006,0 95 0,80
07:26 5,8 4,9 13,0 Noorden 14,5 1006,0 94 0,50
07:31 5,8 4,9 16,3 Noorden 24,1 1006,0 94 0,50
07:36 5,8 4,9 4,7 NNO 12,9 1006,0 94 0,30
07:41 5,9 5,0 14,3 NNW 17,7 1006,3 94 0,30
07:46 6,0 5,1 14,3 NO 19,3 1006,0 94 -
07:51 6,1 5,2 19,5 NNO 24,1 1006,0 94 -
07:56 6,0 5,1 16,3 NO 20,9 1006,0 94 -
08:01 6,0 5,1 4,7 NO 22,5 1006,0 94 0,30
08:06 6,1 5,2 13,0 NNO 20,9 1006,0 94 0,30
08:11 6,1 5,2 16,3 NNO 17,7 1006,3 94 0,50
08:16 6,2 5,3 16,3 NO 19,3 1006,0 94 0,80
08:21 6,2 5,3 7,9 NNO 17,7 1006,0 94 0,80
08:26 6,2 5,3 7,9 NNO 16,1 1006,0 94 0,80
08:31 6,2 5,3 11,1 NNO 17,7 1006,0 94 1,00
08:36 6,2 5,5 14,3 Noorden 19,3 1006,0 95 1,00
08:41 6,2 5,5 14,3 Noorden 17,7 1006,0 95 1,00
08:46 6,3 5,6 14,3 NNO 20,9 1006,0 95 1,00
08:51 6,3 5,4 6,4 Noorden 19,3 1006,3 94 1,00
08:56 6,3 5,4 13,0 NNO 16,1 1006,3 94 1,00
09:01 6,3 5,4 9,7 NNO 17,7 1006,3 94 0,80
09:06 6,4 5,5 14,3 Noorden 17,7 1006,3 94 0,80
09:11 6,4 5,5 13,0 Noorden 14,5 1006,3 94 0,50
09:16 6,4 5,5 11,1 Noorden 17,7 1006,3 94 0,30
09:21 6,4 5,5 14,3 Noorden 14,5 1006,3 94 0,50
09:26 6,4 5,7 7,9 Noorden 11,3 1006,3 95 0,50
09:31 6,4 5,7 14,3 Noorden 16,1 1006,3 95 0,30
09:36 6,5 5,8 13,0 Noorden 16,1 1006,3 95 0,30
09:41 6,5 5,8 9,7 NO 12,9 1006,3 95 0,30
09:46 6,6 5,9 7,9 Noorden 14,5 1006,3 95 0,30
09:51 6,6 5,9 7,9 NNO 12,9 1006,3 95 0,30
09:56 6,6 5,9 9,7 NNO 14,5 1006,3 95 0,30
10:01 6,6 5,9 13,0 Noorden 16,1 1006,3 95 0,30
10:06 6,6 5,9 4,7 NNO 11,3 1006,3 95 0,30
10:11 6,6 5,9 9,7 Noorden 14,5 1006,3 95 0,30
10:16 6,6 5,9 13,0 Noorden 14,5 1006,3 95 0,30
10:21 6,6 5,7 9,7 Noorden 16,1 1006,3 94 0,30
10:26 6,7 5,8 7,9 Noorden 14,5 1006,3 94 0,30
10:31 6,7 5,8 4,7 Noorden 8,0 1006,3 94 0,50
10:36 6,7 5,8 9,7 NNO 16,1 1006,3 94 0,80
10:41 6,7 5,8 7,9 Noorden 12,9 1006,3 94 0,80
10:46 6,7 5,8 9,7 Noorden 12,9 1006,3 94 1,00
10:51 6,7 5,8 6,4 Noorden 12,9 1006,3 94 1,30
10:56 6,6 5,7 6,4 Noorden 11,3 1006,3 94 1,30
11:01 6,6 5,7 4,7 Noorden 8,0 1006,3 94 1,50
11:06 6,6 5,7 9,7 Noorden 11,3 1006,3 94 1,50
11:11 6,6 5,7 9,7 Noorden 16,1 1006,3 94 1,80
11:16 6,7 5,8 7,9 Noorden 14,5 1006,0 94 1,80
11:21 6,7 5,8 7,9 Noorden 9,7 1006,0 94 1,50
11:26 6,7 5,8 7,9 NNW 14,5 1006,0 94 1,50
11:31 6,8 5,9 9,7 NNW 14,5 1005,6 94 1,50
11:36 6,8 6,1 9,7 Noorden 12,9 1005,6 95 1,30
11:41 6,9 6,0 9,7 Noorden 17,7 1005,6 94 1,30
11:46 6,9 6,0 7,9 NNW 14,5 1005,6 94 1,00
11:51 7,1 6,2 7,9 Noorden 14,5 1005,6 94 0,80
11:56 7,2 6,3 13,0 NNW 16,1 1005,3 94 0,80
12:01 7,2 6,3 9,7 NNW 14,5 1005,3 94 0,50
12:06 7,2 6,1 14,3 Noorden 16,1 1005,3 93 0,50
12:11 7,2 6,1 7,9 Noorden 19,3 1005,3 93 0,30
12:16 7,2 6,1 7,9 Noorden 14,5 1005,3 93 0,30
12:21 7,2 6,1 7,9 Noorden 16,1 1005,3 93 0,30
12:26 7,2 6,1 13,0 Noorden 16,1 1005,3 93 0,30
12:31 7,2 6,1 13,0 Noorden 12,9 1005,3 93 -
12:36 7,2 6,1 14,3 Noorden 14,5 1005,3 93 -
12:41 7,3 6,2 13,0 NNW 14,5 1005,3 93 -
12:46 7,3 6,1 13,0 Noorden 14,5 1005,3 92 -
12:51 7,3 6,1 9,7 Noorden 14,5 1005,3 92 -
12:56 7,3 6,1 14,3 NNW 16,1 1005,3 92 -
13:01 7,3 6,1 14,3 Noorden 17,7 1005,3 92 -
13:06 7,3 6,1 14,3 NNW 17,7 1005,0 92 -
13:11 7,3 6,1 9,7 Noorden 16,1 1005,0 92 -
13:16 7,3 6,1 13,0 Noorden 14,5 1005,0 92 -
13:21 7,3 6,1 13,0 Noorden 17,7 1005,0 92 -
13:26 7,4 6,2 9,7 Noorden 14,5 1005,0 92 -
13:31 7,4 6,2 9,7 Noorden 14,5 1005,0 92 -
13:36 7,4 6,2 9,7 NNW 16,1 1005,0 92 -
13:41 7,4 6,2 14,3 Noorden 16,1 1005,0 92 -
13:46 7,4 6,2 7,9 NNW 16,1 1005,0 92 -
13:51 7,4 6,2 14,3 NNW 17,7 1005,0 92 -
13:56 7,4 6,2 13,0 NNW 16,1 1005,0 92 -
14:01 7,3 6,1 7,9 Noorden 16,1 1005,0 92 -
14:06 7,3 6,2 16,3 NNW 19,3 1005,0 93 -
14:11 7,2 6,1 9,7 Noorden 14,5 1005,0 93 -
14:16 7,2 6,1 14,3 NNW 16,1 1005,0 93 -
14:21 7,2 6,1 14,3 Noorden 16,1 1005,0 93 -
14:26 7,2 6,1 11,1 Noorden 12,9 1005,3 93 -
14:31 7,2 6,1 9,7 Noorden 12,9 1005,3 93 -
14:36 7,2 6,1 7,9 Noorden 14,5 1005,3 93 -
14:41 7,2 6,3 13,0 NNW 19,3 1005,3 94 -
14:46 7,2 6,3 7,9 NNW 16,1 1005,3 94 -
14:51 7,1 6,2 9,7 NNW 17,7 1005,3 94 -
14:56 7,2 6,1 13,0 Noorden 20,9 1005,3 93 -
15:01 7,2 6,1 7,9 NNW 19,3 1005,0 93 -
15:06 7,2 6,1 9,7 Noorden 12,9 1005,0 93 -
15:11 7,2 6,1 9,7 Noorden 9,7 1005,0 93 -
15:16 7,2 6,1 9,7 Noorden 14,5 1005,0 93 -
15:21 7,3 6,2 6,4 Noorden 14,5 1005,0 93 -
15:26 7,3 6,1 7,9 Noorden 12,9 1005,0 92 -
15:31 7,2 6,1 9,7 Noorden 16,1 1005,3 93 0,30
15:36 7,2 6,1 7,9 Noorden 14,5 1005,3 93 0,30
15:41 7,2 6,1 7,9 Noorden 16,1 1005,3 93 0,30
15:46 7,3 6,2 9,7 NNW 17,7 1005,3 93 0,30
15:51 7,3 6,1 11,1 Noorden 19,3 1005,0 92 0,30
Dagelijkse Samenvatting Maandag 18 november 2019
Tijd Temp. ( °C ) Dew pt. ( °C ) Wind ( km/h ) van Windvlaag ( km/h ) Luchtdruk ( hPa ) Humid.( % ) Rainrate ( cm )
Hoog7,4 6,3 19,5 Noorden ( 1039/2111 ) 27,4 1009,0 95 2,50
Gemiddeld6,0 5,0 11,1 Noorden #90/191 16,3 1006,4 93 2,20
Laag4,7 3,7 4,7   8,0 1005,0 91 -
Dagelijkse Tabular details for Maandag 18 november 2019
Tijd Temp. ( °C ) Dew pt. ( °C ) Wind ( km/h ) van Windvlaag ( km/h ) Luchtdruk ( hPa ) Humid.( % ) Rainrate ( cm )
00:00 4,7 3,7 7,9 NO 9,7 1009,0 93 1,30
00:05 4,7 3,7 7,9 NO 12,9 1009,0 93 1,30
00:10 4,7 3,7 7,9 NO 14,5 1008,7 93 1,30
00:15 4,8 3,8 7,9 NO 16,1 1008,7 93 1,00
00:20 4,9 3,7 6,4 NO 14,5 1008,7 92 0,80
00:25 4,9 3,7 9,7 NO 12,9 1008,7 92 0,80
00:30 4,9 3,7 7,9 NO 14,5 1008,4 92 0,50
00:35 4,9 3,7 6,4 NO 12,9 1008,4 92 0,30
00:40 5,0 3,8 9,7 NNO 12,9 1008,4 92 0,30
00:45 5,0 3,8 9,7 NO 16,1 1008,4 92 0,30
00:50 5,0 3,8 6,4 NO 9,7 1008,4 92 0,50
00:55 5,0 3,8 6,4 NO 12,9 1008,7 92 0,50
01:00 5,0 3,8 6,4 NO 11,3 1008,7 92 0,50
01:05 4,9 3,7 9,7 NO 17,7 1008,7 92 0,50
01:10 5,0 3,8 6,4 Oosten 14,5 1008,7 92 0,80
01:15 5,1 3,9 9,7 NO 9,7 1008,7 92 0,80
01:20 5,0 3,8 9,7 NO 14,5 1008,7 92 1,00
01:25 5,0 3,7 14,3 NNO 16,1 1008,4 91 1,30
01:30 5,0 3,7 7,9 NO 16,1 1008,4 91 1,50
01:35 5,1 3,9 11,1 NO 14,5 1008,0 92 1,80
01:40 5,1 3,9 9,7 NO 14,5 1008,0 92 1,80
01:45 5,0 3,8 9,7 NO 14,5 1008,0 92 2,00
01:50 5,0 3,8 11,1 NO 14,5 1008,0 92 2,00
01:55 5,0 3,8 9,7 NO 17,7 1008,0 92 2,00
02:00 5,0 3,8 9,7 NNO 12,9 1008,0 92 2,50
02:05 5,0 4,0 9,7 NO 12,9 1008,0 93 2,30
02:10 5,0 3,8 6,4 NNO 12,9 1008,4 92 2,50
02:15 5,0 4,0 7,9 NNW 9,7 1008,0 93 2,50
02:20 4,9 3,9 6,4 NO 11,3 1008,0 93 2,50
02:25 5,0 3,8 14,3 NO 16,1 1007,7 92 2,50
02:30 5,0 3,8 7,9 Noorden 17,7 1007,7 92 2,30
02:35 5,1 3,9 11,1 Noorden 14,5 1007,7 92 2,00
02:40 5,1 3,9 9,7 NO 17,7 1007,7 92 2,30
02:45 5,0 3,8 7,9 NO 14,5 1007,7 92 2,30
02:50 5,0 3,7 11,1 NO 17,7 1007,3 91 2,00
02:55 5,1 3,8 14,3 NO 16,1 1007,3 91 2,00
03:00 5,0 3,8 9,7 NO 16,1 1007,7 92 1,80
03:05 5,0 3,8 17,7 NO 17,7 1007,7 92 2,00
03:10 4,9 3,7 7,9 NNO 16,1 1007,7 92 1,80
03:16 4,9 3,7 7,9 NO 14,5 1007,7 92 2,00
03:21 5,0 3,8 6,4 NNO 16,1 1007,7 92 1,80
03:26 4,9 3,9 9,7 NNO 12,9 1007,7 93 1,50
03:31 4,9 3,9 9,7 NO 16,1 1007,3 93 1,50
03:36 4,9 3,7 17,7 NNO 20,9 1007,3 92 1,50
03:41 5,0 3,8 17,7 NNO 19,3 1007,3 92 1,30
03:46 5,0 3,8 16,3 NO 19,3 1007,3 92 1,00
03:51 4,9 3,9 7,9 NO 14,5 1007,0 93 1,30
03:56 4,9 3,9 6,4 NNO 17,7 1007,0 93 1,50
04:01 4,9 3,9 14,3 NO 19,3 1006,7 93 1,30
04:06 4,9 4,0 11,1 NNO 17,7 1006,7 94 1,00
04:11 4,9 4,0 16,3 Noorden 20,9 1006,3 94 0,80
04:16 4,9 4,0 16,3 NO 19,3 1006,3 94 0,80
04:21 4,9 3,9 11,1 NO 20,9 1006,3 93 1,00
04:26 4,9 3,9 13,0 NNO 25,7 1006,7 93 1,00
04:31 4,9 4,0 17,7 NNO 17,7 1006,3 94 1,00
04:36 4,9 4,0 13,0 NNO 17,7 1006,3 94 1,00
04:41 4,9 4,0 11,1 Noorden 16,1 1006,3 94 1,00
04:46 5,0 4,1 9,7 NO 24,1 1006,7 94 1,00
04:51 5,1 4,2 9,7 NO 16,1 1006,7 94 0,80
04:56 5,1 4,2 9,7 NNO 19,3 1006,7 94 0,50
05:01 5,2 4,3 13,0 Noorden 17,7 1006,7 94 0,50
05:06 5,2 4,3 17,7 Noorden 17,7 1006,7 94 0,50
05:11 5,3 4,4 14,3 Noorden 24,1 1006,7 94 0,80
05:16 5,3 4,4 14,3 Noorden 22,5 1006,3 94 0,80
05:21 5,3 4,4 17,7 Noorden 19,3 1006,3 94 0,50
05:26 5,3 4,4 16,3 Noorden 22,5 1006,3 94 0,80
05:31 5,3 4,4 13,0 Noorden 20,9 1006,3 94 0,80
05:36 5,4 4,5 14,3 Noorden 24,1 1006,3 94 1,00
05:41 5,4 4,5 7,9 NNO 14,5 1006,3 94 1,00
05:46 5,4 4,5 7,9 NO 16,1 1006,3 94 1,30
05:51 5,4 4,5 16,3 Noorden 19,3 1006,3 94 1,50
05:56 5,4 4,5 14,3 Noorden 20,9 1006,3 94 1,50
06:01 5,5 4,8 13,0 Noorden 14,5 1006,3 95 1,80
06:06 5,5 4,8 14,3 Noorden 20,9 1006,3 95 1,80
06:11 5,6 4,9 11,1 NNO 19,3 1006,3 95 1,80
06:16 5,6 4,9 7,9 NNO 19,3 1006,3 95 1,80
06:21 5,6 4,9 16,3 Noorden 19,3 1006,3 95 1,80
06:26 5,7 5,0 16,3 Noorden 27,4 1006,3 95 1,80
06:31 5,7 4,8 13,0 Noorden 22,5 1006,3 94 1,80
06:36 5,7 4,8 17,7 Noorden 19,3 1006,3 94 1,80
06:41 5,6 4,9 16,3 Noorden 19,3 1006,3 95 1,80
06:46 5,7 5,0 14,3 Noorden 19,3 1006,3 95 1,80
06:51 5,7 5,0 16,3 Noorden 19,3 1006,3 95 1,50
06:56 5,7 5,0 13,0 Noorden 16,1 1006,3 95 1,50
07:01 5,7 5,0 13,0 Noorden 16,1 1006,3 95 1,30
07:06 5,7 5,0 9,7 Noorden 14,5 1006,3 95 1,30
07:11 5,7 5,0 13,0 NNO 24,1 1006,0 95 1,00
07:16 5,8 5,1 17,7 NNW 20,9 1006,0 95 0,80
07:21 5,8 5,1 14,3 Noorden 17,7 1006,0 95 0,80
07:26 5,8 4,9 13,0 Noorden 14,5 1006,0 94 0,50
07:31 5,8 4,9 16,3 Noorden 24,1 1006,0 94 0,50
07:36 5,8 4,9 4,7 NNO 12,9 1006,0 94 0,30
07:41 5,9 5,0 14,3 NNW 17,7 1006,3 94 0,30
07:46 6,0 5,1 14,3 NO 19,3 1006,0 94 -
07:51 6,1 5,2 19,5 NNO 24,1 1006,0 94 -
07:56 6,0 5,1 16,3 NO 20,9 1006,0 94 -
08:01 6,0 5,1 4,7 NO 22,5 1006,0 94 0,30
08:06 6,1 5,2 13,0 NNO 20,9 1006,0 94 0,30
08:11 6,1 5,2 16,3 NNO 17,7 1006,3 94 0,50
08:16 6,2 5,3 16,3 NO 19,3 1006,0 94 0,80
08:21 6,2 5,3 7,9 NNO 17,7 1006,0 94 0,80
08:26 6,2 5,3 7,9 NNO 16,1 1006,0 94 0,80
08:31 6,2 5,3 11,1 NNO 17,7 1006,0 94 1,00
08:36 6,2 5,5 14,3 Noorden 19,3 1006,0 95 1,00
08:41 6,2 5,5 14,3 Noorden 17,7 1006,0 95 1,00
08:46 6,3 5,6 14,3 NNO 20,9 1006,0 95 1,00
08:51 6,3 5,4 6,4 Noorden 19,3 1006,3 94 1,00
08:56 6,3 5,4 13,0 NNO 16,1 1006,3 94 1,00
09:01 6,3 5,4 9,7 NNO 17,7 1006,3 94 0,80
09:06 6,4 5,5 14,3 Noorden 17,7 1006,3 94 0,80
09:11 6,4 5,5 13,0 Noorden 14,5 1006,3 94 0,50
09:16 6,4 5,5 11,1 Noorden 17,7 1006,3 94 0,30
09:21 6,4 5,5 14,3 Noorden 14,5 1006,3 94 0,50
09:26 6,4 5,7 7,9 Noorden 11,3 1006,3 95 0,50
09:31 6,4 5,7 14,3 Noorden 16,1 1006,3 95 0,30
09:36 6,5 5,8 13,0 Noorden 16,1 1006,3 95 0,30
09:41 6,5 5,8 9,7 NO 12,9 1006,3 95 0,30
09:46 6,6 5,9 7,9 Noorden 14,5 1006,3 95 0,30
09:51 6,6 5,9 7,9 NNO 12,9 1006,3 95 0,30
09:56 6,6 5,9 9,7 NNO 14,5 1006,3 95 0,30
10:01 6,6 5,9 13,0 Noorden 16,1 1006,3 95 0,30
10:06 6,6 5,9 4,7 NNO 11,3 1006,3 95 0,30
10:11 6,6 5,9 9,7 Noorden 14,5 1006,3 95 0,30
10:16 6,6 5,9 13,0 Noorden 14,5 1006,3 95 0,30
10:21 6,6 5,7 9,7 Noorden 16,1 1006,3 94 0,30
10:26 6,7 5,8 7,9 Noorden 14,5 1006,3 94 0,30
10:31 6,7 5,8 4,7 Noorden 8,0 1006,3 94 0,50
10:36 6,7 5,8 9,7 NNO 16,1 1006,3 94 0,80
10:41 6,7 5,8 7,9 Noorden 12,9 1006,3 94 0,80
10:46 6,7 5,8 9,7 Noorden 12,9 1006,3 94 1,00
10:51 6,7 5,8 6,4 Noorden 12,9 1006,3 94 1,30
10:56 6,6 5,7 6,4 Noorden 11,3 1006,3 94 1,30
11:01 6,6 5,7 4,7 Noorden 8,0 1006,3 94 1,50
11:06 6,6 5,7 9,7 Noorden 11,3 1006,3 94 1,50
11:11 6,6 5,7 9,7 Noorden 16,1 1006,3 94 1,80
11:16 6,7 5,8 7,9 Noorden 14,5 1006,0 94 1,80
11:21 6,7 5,8 7,9 Noorden 9,7 1006,0 94 1,50
11:26 6,7 5,8 7,9 NNW 14,5 1006,0 94 1,50
11:31 6,8 5,9 9,7 NNW 14,5 1005,6 94 1,50
11:36 6,8 6,1 9,7 Noorden 12,9 1005,6 95 1,30
11:41 6,9 6,0 9,7 Noorden 17,7 1005,6 94 1,30
11:46 6,9 6,0 7,9 NNW 14,5 1005,6 94 1,00
11:51 7,1 6,2 7,9 Noorden 14,5 1005,6 94 0,80
11:56 7,2 6,3 13,0 NNW 16,1 1005,3 94 0,80
12:01 7,2 6,3 9,7 NNW 14,5 1005,3 94 0,50
12:06 7,2 6,1 14,3 Noorden 16,1 1005,3 93 0,50
12:11 7,2 6,1 7,9 Noorden 19,3 1005,3 93 0,30
12:16 7,2 6,1 7,9 Noorden 14,5 1005,3 93 0,30
12:21 7,2 6,1 7,9 Noorden 16,1 1005,3 93 0,30
12:26 7,2 6,1 13,0 Noorden 16,1 1005,3 93 0,30
12:31 7,2 6,1 13,0 Noorden 12,9 1005,3 93 -
12:36 7,2 6,1 14,3 Noorden 14,5 1005,3 93 -
12:41 7,3 6,2 13,0 NNW 14,5 1005,3 93 -
12:46 7,3 6,1 13,0 Noorden 14,5 1005,3 92 -
12:51 7,3 6,1 9,7 Noorden 14,5 1005,3 92 -
12:56 7,3 6,1 14,3 NNW 16,1 1005,3 92 -
13:01 7,3 6,1 14,3 Noorden 17,7 1005,3 92 -
13:06 7,3 6,1 14,3 NNW 17,7 1005,0 92 -
13:11 7,3 6,1 9,7 Noorden 16,1 1005,0 92 -
13:16 7,3 6,1 13,0 Noorden 14,5 1005,0 92 -
13:21 7,3 6,1 13,0 Noorden 17,7 1005,0 92 -
13:26 7,4 6,2 9,7 Noorden 14,5 1005,0 92 -
13:31 7,4 6,2 9,7 Noorden 14,5 1005,0 92 -
13:36 7,4 6,2 9,7 NNW 16,1 1005,0 92 -
13:41 7,4 6,2 14,3 Noorden 16,1 1005,0 92 -
13:46 7,4 6,2 7,9 NNW 16,1 1005,0 92 -
13:51 7,4 6,2 14,3 NNW 17,7 1005,0 92 -
13:56 7,4 6,2 13,0 NNW 16,1 1005,0 92 -
14:01 7,3 6,1 7,9 Noorden 16,1 1005,0 92 -
14:06 7,3 6,2 16,3 NNW 19,3 1005,0 93 -
14:11 7,2 6,1 9,7 Noorden 14,5 1005,0 93 -
14:16 7,2 6,1 14,3 NNW 16,1 1005,0 93 -
14:21 7,2 6,1 14,3 Noorden 16,1 1005,0 93 -
14:26 7,2 6,1 11,1 Noorden 12,9 1005,3 93 -
14:31 7,2 6,1 9,7 Noorden 12,9 1005,3 93 -
14:36 7,2 6,1 7,9 Noorden 14,5 1005,3 93 -
14:41 7,2 6,3 13,0 NNW 19,3 1005,3 94 -
14:46 7,2 6,3 7,9 NNW 16,1 1005,3 94 -
14:51 7,1 6,2 9,7 NNW 17,7 1005,3 94 -
14:56 7,2 6,1 13,0 Noorden 20,9 1005,3 93 -
15:01 7,2 6,1 7,9 NNW 19,3 1005,0 93 -
15:06 7,2 6,1 9,7 Noorden 12,9 1005,0 93 -
15:11 7,2 6,1 9,7 Noorden 9,7 1005,0 93 -
15:16 7,2 6,1 9,7 Noorden 14,5 1005,0 93 -
15:21 7,3 6,2 6,4 Noorden 14,5 1005,0 93 -
15:26 7,3 6,1 7,9 Noorden 12,9 1005,0 92 -
15:31 7,2 6,1 9,7 Noorden 16,1 1005,3 93 0,30
15:36 7,2 6,1 7,9 Noorden 14,5 1005,3 93 0,30
15:41 7,2 6,1 7,9 Noorden 16,1 1005,3 93 0,30
15:46 7,3 6,2 9,7 NNW 17,7 1005,3 93 0,30
15:51 7,3 6,1 11,1 Noorden 19,3 1005,0 92 0,30

Download your copy of this data-set  here

Our weather-data as stored at Weather Underground. Script ontwikkeld door Jim McMurry. Aangepast voor de template door Leuven-Template.eu

Apparatuur in gebruik:

Weerstation
Davis VP2

Weerprogramma
Meteobridge

Weercomputer
TP-link TL-MR3020

Webleverancier
Versio

Davis VP2

Meteobridge

TP-link TL-MR3020

Versio